M I D A S
Marine Information and Data Acquisition System
Tripno 1960 of the Zeeleeuw from 2010-09-13 06:19:30 to 2010-09-13 13:52:00
Back to CruiseResearch ActivitiesStationsMapUnderway DataData graphs

EquipmentUnitsComments
TimeDGPSUTC
LatitudeDGPSDM.mWGS84
LongitudeDGPSDM.mWGS84
SpeedMeteo Stationm/sRelative wind speed
DirectionMeteo StationdegRelative wind direction
TemperatureMeteo Stationdeg CelciusAir temperature
PressureMeteo StationPaAtmospheric pressure
HumidityMeteo Station%Relative humidity
Missing or incorrect values are displayed as -999
Metereological data collected by the RV Zeeleeuw from 2010-09-13 05:56:46 to 2010-09-13 13:56:12
                                                                                    Next 1000 lines
Time Latitude Longitude Speed Direction Temperature Pressure Humidity
2010-09-13 05:56:56 51°13.661 2°55.961 2.6 53 15.6 102580 44
2010-09-13 05:57:01 51°13.661 2°55.961 2.4 29 15.6 102570 43
2010-09-13 05:57:06 51°13.661 2°55.961 2.1 43 15.6 102570 43
2010-09-13 05:57:11 51°13.661 2°55.961 2.5 23 15.6 102580 43
2010-09-13 05:57:16 51°13.662 2°55.962 2.2 56 15.6 102580 43
2010-09-13 05:57:21 51°13.662 2°55.961 2.6 41 15.6 102580 43
2010-09-13 05:57:26 51°13.662 2°55.961 3.2 57 15.6 102580 43
2010-09-13 05:57:31 51°13.662 2°55.961 2.6 41 15.6 102580 43
2010-09-13 05:57:36 51°13.662 2°55.961 2.7 41 15.6 102580 43
2010-09-13 05:57:41 51°13.662 2°55.96 2.8 42 15.6 102580 44
2010-09-13 05:57:46 51°13.662 2°55.96 3.4 40 15.6 102580 44
2010-09-13 05:57:51 51°13.662 2°55.96 3.2 39 15.6 102570 42
2010-09-13 05:57:56 51°13.662 2°55.96 4.4 41 15.6 102570 42
2010-09-13 05:58:01 51°13.663 2°55.96 4.2 44 15.6 102580 44
2010-09-13 05:58:06 51°13.663 2°55.961 2.9 51 15.6 102580 44
2010-09-13 05:58:11 51°13.663 2°55.961 2.5 23 15.6 102570 43
2010-09-13 05:58:16 51°13.663 2°55.961 2.2 58 15.6 102570 43
2010-09-13 05:58:21 51°13.663 2°55.96 4.5 24 15.6 102570 43
2010-09-13 05:58:26 51°13.663 2°55.96 2.8 53 15.6 102570 43
2010-09-13 05:58:31 51°13.663 2°55.96 3.5 23 15.6 102570 43
2010-09-13 05:58:36 51°13.663 2°55.96 2.8 44 15.6 102570 43
2010-09-13 05:58:41 51°13.663 2°55.96 2.7 44 15.6 102570 44
2010-09-13 05:58:46 51°13.663 2°55.96 2.7 53 15.6 102570 44
2010-09-13 05:58:51 51°13.663 2°55.96 2 21 15.6 102570 44
2010-09-13 05:58:56 51°13.663 2°55.96 2.5 52 15.6 102570 44
2010-09-13 05:59:01 51°13.663 2°55.96 2.1 22 15.6 102570 41
2010-09-13 05:59:06 51°13.664 2°55.961 1.6 53 15.6 102570 41
2010-09-13 05:59:11 51°13.663 2°55.961 1 28 15.6 102570 44
2010-09-13 05:59:16 51°13.663 2°55.96 1.1 58 15.6 102570 44
2010-09-13 05:59:21 51°13.663 2°55.96 2.2 28 15.6 102580 43
2010-09-13 05:59:25 51°13.663 2°55.96 2.9 59 15.6 102580 43
2010-09-13 05:59:30 51°13.663 2°55.96 2.7 28 15.6 102570 42
2010-09-13 05:59:35 51°13.663 2°55.961 2.7 54 15.6 102570 42
2010-09-13 05:59:41 51°13.662 2°55.96 1.7 22 15.6 102570 42
2010-09-13 05:59:45 51°13.663 2°55.96 2.6 44 15.6 102570 42
2010-09-13 05:59:51 51°13.663 2°55.961 3.2 41 15.6 102570 43
2010-09-13 05:59:55 51°13.663 2°55.961 1.7 51 15.6 102570 43
2010-09-13 06:00:01 51°13.663 2°55.961 1.9 43 15.6 102570 44
2010-09-13 06:00:05 51°13.663 2°55.961 2.9 60 15.6 102570 44
2010-09-13 06:00:11 51°13.663 2°55.96 1.5 20 15.6 102570 42
2010-09-13 06:00:16 51°13.663 2°55.961 0.6 49 15.6 102570 42
2010-09-13 06:00:21 51°13.663 2°55.961 0.1 22 15.7 102570 42
2010-09-13 06:00:26 51°13.663 2°55.96 0.1 45 15.7 102570 42
2010-09-13 06:00:31 51°13.663 2°55.96 -999 24 15.6 102570 42
2010-09-13 06:00:36 51°13.663 2°55.961 -999 24 15.6 102570 42
2010-09-13 06:00:41 51°13.663 2°55.961 -999 24 15.6 102570 42
2010-09-13 06:00:46 51°13.663 2°55.961 -999 24 15.6 102570 42
2010-09-13 06:00:51 51°13.663 2°55.96 -999 24 15.6 102570 42
2010-09-13 06:00:56 51°13.663 2°55.96 -999 24 15.6 102570 42
2010-09-13 06:01:01 51°13.663 2°55.96 -999 24 -999 -999 -999
2010-09-13 06:01:06 51°13.663 2°55.96 -999 -999 -999 -999 -999
2010-09-13 06:01:11 51°13.663 2°55.961 -999 -999 -999 -999 -999
2010-09-13 06:01:16 51°13.663 2°55.96 -999 40 -999 -999 -999
2010-09-13 06:01:21 51°13.663 2°55.961 -999 14 -999 -999 -999
2010-09-13 06:01:26 51°13.663 2°55.961 -999 54 -999 -999 -999
2010-09-13 06:01:31 51°13.663 2°55.96 -999 24 -999 -999 -999
2010-09-13 06:01:36 51°13.663 2°55.96 -999 42 -999 -999 -999
2010-09-13 06:01:41 51°13.663 2°55.961 -999 28 15.6 -999 28
2010-09-13 06:01:46 51°13.663 2°55.961 -999 56 15.6 -999 28
2010-09-13 06:01:51 51°13.663 2°55.96 -999 25 15.7 -999 44
2010-09-13 06:01:56 51°13.663 2°55.96 2.6 50 15.7 -999 44
2010-09-13 06:02:01 51°13.663 2°55.961 2 20 15.7 102580 44
2010-09-13 06:02:06 51°13.663 2°55.96 0.7 45 15.7 102580 44
2010-09-13 06:02:11 51°13.663 2°55.96 4.3 23 15.7 102580 44
2010-09-13 06:02:16 51°13.663 2°55.96 2.2 52 15.7 102580 44
2010-09-13 06:02:21 51°13.663 2°55.961 2.1 21 15.7 102580 44
2010-09-13 06:02:26 51°13.663 2°55.961 0.4 52 15.7 102580 44
2010-09-13 06:02:31 51°13.663 2°55.96 0.1 23 15.7 102580 43
2010-09-13 06:02:36 51°13.663 2°55.96 0.1 54 15.7 102580 43
2010-09-13 06:02:41 51°13.663 2°55.961 0.9 22 15.7 102580 43
2010-09-13 06:02:46 51°13.663 2°55.961 0.2 55 15.7 102580 43
2010-09-13 06:02:51 51°13.663 2°55.961 0.1 27 15.7 102580 43
2010-09-13 06:02:56 51°13.663 2°55.961 0.1 55 15.7 102580 43
2010-09-13 06:03:00 51°13.662 2°55.961 2.6 28 15.7 102580 42
2010-09-13 06:03:05 51°13.662 2°55.961 2.7 52 15.7 102580 42
2010-09-13 06:03:10 51°13.662 2°55.961 2.4 28 15.7 102580 43
2010-09-13 06:03:16 51°13.663 2°55.961 2.6 53 15.7 102580 43
2010-09-13 06:03:20 51°13.662 2°55.961 1.4 29 15.7 102580 43
2010-09-13 06:03:25 51°13.662 2°55.961 1.5 53 15.7 102580 43
2010-09-13 06:03:30 51°13.662 2°55.961 1.3 27 15.7 102580 44
2010-09-13 06:03:35 51°13.662 2°55.961 4.7 54 15.7 102580 44
2010-09-13 06:03:40 51°13.662 2°55.961 4.3 21 15.7 102580 42
2010-09-13 06:03:44 51°13.662 2°55.961 5.2 53 15.7 102580 42
2010-09-13 06:03:49 51°13.662 2°55.961 2.8 28 15.7 102580 43
2010-09-13 06:03:54 51°13.663 2°55.962 3.9 53 15.7 102580 43
2010-09-13 06:03:59 51°13.663 2°55.962 3.1 29 15.7 102580 43
2010-09-13 06:04:04 51°13.662 2°55.961 3.1 53 15.7 102580 43
2010-09-13 06:04:08 51°13.662 2°55.961 2.1 25 15.7 102580 43
2010-09-13 06:04:13 51°13.662 2°55.961 4.5 52 15.7 102580 43
2010-09-13 06:04:18 51°13.662 2°55.961 4.5 26 15.7 102580 43
2010-09-13 06:04:23 51°13.662 2°55.961 4.1 52 15.7 102580 43
2010-09-13 06:04:28 51°13.662 2°55.96 3.6 23 15.7 102580 42
2010-09-13 06:04:33 51°13.662 2°55.961 3 53 15.7 102580 42
2010-09-13 06:04:37 51°13.662 2°55.961 3.3 29 15.7 102580 43
2010-09-13 06:04:43 51°13.662 2°55.961 3.2 59 15.7 102580 43
2010-09-13 06:04:48 51°13.662 2°55.961 3.1 22 15.7 102580 41
2010-09-13 06:04:52 51°13.662 2°55.962 3.4 59 15.7 102580 41
2010-09-13 06:04:57 51°13.662 2°55.961 4 25 15.7 102580 42
2010-09-13 06:05:02 51°13.662 2°55.961 2.7 59 15.7 102580 42
2010-09-13 06:05:07 51°13.662 2°55.961 4 22 15.7 102580 42
2010-09-13 06:05:12 51°13.662 2°55.961 3.9 53 15.7 102580 42
2010-09-13 06:05:17 51°13.662 2°55.961 2.9 28 15.7 102580 43
2010-09-13 06:05:22 51°13.663 2°55.961 3.5 53 15.7 102580 43
2010-09-13 06:05:27 51°13.662 2°55.961 3.1 22 15.7 102590 42
2010-09-13 06:05:32 51°13.663 2°55.961 4 53 15.7 102590 42
2010-09-13 06:05:37 51°13.663 2°55.961 3.5 24 15.7 102590 41
2010-09-13 06:05:42 51°13.663 2°55.961 3 53 15.7 102590 41
2010-09-13 06:05:47 51°13.663 2°55.961 3 28 15.7 102580 43
2010-09-13 06:05:52 51°13.663 2°55.961 3.5 50 15.7 102580 43
2010-09-13 06:05:57 51°13.663 2°55.961 2.2 29 15.7 102580 44
2010-09-13 06:06:02 51°13.663 2°55.961 2.7 59 15.7 102580 44
2010-09-13 06:06:07 51°13.662 2°55.961 2.9 23 15.7 102580 43
2010-09-13 06:06:12 51°13.662 2°55.961 3.1 52 15.7 102580 43
2010-09-13 06:06:17 51°13.662 2°55.961 2.1 27 15.7 102580 42
2010-09-13 06:06:22 51°13.662 2°55.961 1.9 50 15.7 102580 42
2010-09-13 06:06:27 51°13.662 2°55.961 2.3 27 15.7 102590 44
2010-09-13 06:06:32 51°13.662 2°55.961 3.3 53 15.7 102590 44
2010-09-13 06:06:37 51°13.662 2°55.961 1.6 23 15.7 102580 43
2010-09-13 06:06:42 51°13.662 2°55.961 3 52 15.7 102580 43
2010-09-13 06:06:48 51°13.662 2°55.961 1.5 29 15.8 102590 43
2010-09-13 06:06:52 51°13.662 2°55.961 2.8 54 15.8 102590 43
2010-09-13 06:06:57 51°13.662 2°55.962 2.4 27 15.7 102590 42
2010-09-13 06:07:02 51°13.662 2°55.961 3.5 57 15.7 102590 42
2010-09-13 06:07:07 51°13.662 2°55.961 3.1 21 15.8 102580 42
2010-09-13 06:07:12 51°13.662 2°55.961 3 51 15.8 102580 42
2010-09-13 06:07:17 51°13.662 2°55.961 2.4 28 15.8 102580 42
2010-09-13 06:07:22 51°13.662 2°55.961 2.4 54 15.8 102580 42
2010-09-13 06:07:27 51°13.662 2°55.961 2.7 23 15.7 102580 42
2010-09-13 06:07:32 51°13.662 2°55.962 3.3 52 15.7 102580 42
2010-09-13 06:07:37 51°13.662 2°55.961 3.4 23 15.7 102580 43
2010-09-13 06:07:42 51°13.662 2°55.961 4 54 15.7 102580 43
2010-09-13 06:07:47 51°13.662 2°55.962 1.7 28 15.8 102580 43
2010-09-13 06:07:52 51°13.662 2°55.962 2.9 52 15.8 102580 43
2010-09-13 06:07:57 51°13.662 2°55.962 3.5 21 15.7 102580 43
2010-09-13 06:08:03 51°13.662 2°55.961 3.7 51 15.7 102580 43
2010-09-13 06:08:07 51°13.662 2°55.961 2.6 22 15.7 102580 43
2010-09-13 06:08:12 51°13.662 2°55.961 1.2 57 15.7 102580 43
2010-09-13 06:08:17 51°13.662 2°55.961 1.8 21 15.8 102580 42
2010-09-13 06:08:22 51°13.662 2°55.961 1.7 57 15.8 102580 42
2010-09-13 06:08:27 51°13.662 2°55.961 1.7 25 15.8 102580 43
2010-09-13 06:08:32 51°13.663 2°55.961 1.3 57 15.8 102580 43
2010-09-13 06:08:37 51°13.663 2°55.961 2.5 25 15.8 102580 43
2010-09-13 06:08:43 51°13.663 2°55.96 3.9 57 15.8 102580 43
2010-09-13 06:08:47 51°13.663 2°55.96 3.9 26 15.8 102580 43
2010-09-13 06:08:52 51°13.663 2°55.961 3.3 50 15.8 102580 43
2010-09-13 06:08:57 51°13.663 2°55.961 4.1 21 15.8 102580 43
2010-09-13 06:09:02 51°13.662 2°55.961 2.6 57 15.8 102580 43
2010-09-13 06:09:07 51°13.662 2°55.961 2.7 21 15.8 102580 42
2010-09-13 06:09:12 51°13.661 2°55.962 2.7 39 15.8 102580 42
2010-09-13 06:09:17 51°13.661 2°55.962 3 42 15.8 102580 43
2010-09-13 06:09:22 51°13.661 2°55.962 2.8 35 15.8 102580 43
2010-09-13 06:09:27 51°13.661 2°55.961 2.7 38 15.8 102580 43
2010-09-13 06:09:32 51°13.661 2°55.961 3.2 58 15.8 102580 43
2010-09-13 06:09:37 51°13.661 2°55.961 2.4 42 15.8 102590 43
2010-09-13 06:09:42 51°13.661 2°55.962 2.7 39 15.8 102590 43
2010-09-13 06:09:48 51°13.661 2°55.962 3.4 43 15.8 102580 42
2010-09-13 06:09:52 51°13.661 2°55.962 2.7 34 15.8 102580 42
2010-09-13 06:09:57 51°13.661 2°55.962 2.6 36 15.7 102590 42
2010-09-13 06:10:02 51°13.662 2°55.962 2.5 32 15.7 102590 42
2010-09-13 06:10:07 51°13.662 2°55.961 2.3 35 15.7 102580 42
2010-09-13 06:10:12 51°13.662 2°55.961 3.5 42 15.7 102580 42
2010-09-13 06:10:17 51°13.662 2°55.961 3 40 15.7 102580 43
2010-09-13 06:10:22 51°13.662 2°55.961 3.2 43 15.7 102580 43
2010-09-13 06:10:27 51°13.662 2°55.961 2.7 23 15.7 102580 42
2010-09-13 06:10:32 51°13.662 2°55.961 3.4 45 15.7 102580 42
2010-09-13 06:10:37 51°13.662 2°55.961 3.6 44 15.7 102580 43
2010-09-13 06:10:42 51°13.662 2°55.962 4.7 44 15.7 102580 43
2010-09-13 06:10:47 51°13.661 2°55.962 4.2 43 15.8 102580 44
2010-09-13 06:10:52 51°13.661 2°55.962 4 59 15.8 102580 44
2010-09-13 06:10:57 51°13.661 2°55.962 3.7 36 15.7 102580 42
2010-09-13 06:11:02 51°13.661 2°55.962 3.9 41 15.7 102580 42
2010-09-13 06:11:07 51°13.661 2°55.962 4.1 39 15.7 102590 43
2010-09-13 06:11:12 51°13.661 2°55.963 3.3 39 15.7 102590 43
2010-09-13 06:11:17 51°13.661 2°55.963 3 39 15.7 102580 43
2010-09-13 06:11:22 51°13.661 2°55.963 2.1 38 15.7 102580 43
2010-09-13 06:11:27 51°13.661 2°55.962 3 29 15.7 102590 42
2010-09-13 06:11:32 51°13.661 2°55.962 2.9 41 15.7 102590 42
2010-09-13 06:11:37 51°13.661 2°55.962 3.3 44 15.7 102580 42
2010-09-13 06:11:42 51°13.661 2°55.962 3.2 60 15.7 102580 42
2010-09-13 06:11:48 51°13.661 2°55.962 3.3 40 15.7 102590 43
2010-09-13 06:11:52 51°13.661 2°55.962 3.2 58 15.7 102590 43
2010-09-13 06:11:57 51°13.659 2°55.962 2.9 26 15.7 102590 42
2010-09-13 06:12:02 51°13.66 2°55.963 2.8 60 15.7 102590 42
2010-09-13 06:12:07 51°13.66 2°55.963 3.4 44 15.7 102590 43
2010-09-13 06:12:12 51°13.661 2°55.963 3.5 39 15.7 102590 43
2010-09-13 06:12:17 51°13.661 2°55.963 4.2 44 15.7 102590 43
2010-09-13 06:12:22 51°13.661 2°55.963 4.3 43 15.7 102590 43
2010-09-13 06:12:27 51°13.661 2°55.962 4 26 15.7 102590 42
2010-09-13 06:12:32 51°13.661 2°55.962 5.2 53 15.7 102590 42
2010-09-13 06:12:37 51°13.661 2°55.963 4.6 23 15.7 102580 42
2010-09-13 06:12:42 51°13.661 2°55.963 4.4 55 15.7 102580 42
2010-09-13 06:12:47 51°13.661 2°55.962 2.6 28 15.7 102590 42
2010-09-13 06:12:52 51°13.661 2°55.962 4.4 59 15.7 102590 42
2010-09-13 06:12:57 51°13.661 2°55.962 4.6 23 15.7 102590 43
2010-09-13 06:13:02 51°13.661 2°55.962 4.5 56 15.7 102590 43
2010-09-13 06:13:07 51°13.661 2°55.962 4.6 28 15.7 102590 42
2010-09-13 06:13:12 51°13.661 2°55.962 3.7 53 15.7 102590 42
2010-09-13 06:13:17 51°13.661 2°55.962 4.3 28 15.7 102590 42
2010-09-13 06:13:23 51°13.66 2°55.962 3.3 59 15.7 102590 42
2010-09-13 06:13:28 51°13.66 2°55.962 2.3 26 15.7 102590 43
2010-09-13 06:13:32 51°13.659 2°55.962 2.4 54 15.7 102590 43
2010-09-13 06:13:37 51°13.659 2°55.961 1.8 22 15.7 102590 42
2010-09-13 06:13:42 51°13.66 2°55.96 3.8 52 15.7 102590 42
2010-09-13 06:13:47 51°13.66 2°55.958 3.4 25 15.7 102590 42
2010-09-13 06:13:52 51°13.661 2°55.956 4.3 57 15.7 102590 42
2010-09-13 06:13:57 51°13.662 2°55.951 5 27 15.7 102590 43
2010-09-13 06:14:02 51°13.663 2°55.947 2.8 60 15.7 102590 43
2010-09-13 06:14:08 51°13.665 2°55.94 3.3 29 15.7 102590 42
2010-09-13 06:14:13 51°13.666 2°55.933 3.1 59 15.7 102590 42
2010-09-13 06:14:19 51°13.668 2°55.924 5.2 23 15.7 102590 43
2010-09-13 06:14:24 51°13.671 2°55.916 4.1 52 15.7 102590 43
2010-09-13 06:14:30 51°13.673 2°55.905 2.9 23 15.7 102590 42
2010-09-13 06:14:36 51°13.676 2°55.893 2.2 52 15.7 102590 42
2010-09-13 06:14:41 51°13.678 2°55.884 2.5 23 15.7 102590 42
2010-09-13 06:14:46 51°13.681 2°55.875 2.2 51 15.7 102590 42
2010-09-13 06:14:51 51°13.683 2°55.865 2.6 23 15.7 102600 44
2010-09-13 06:14:56 51°13.686 2°55.856 2.9 58 15.7 102600 44
2010-09-13 06:15:01 51°13.688 2°55.847 2.4 21 15.8 102590 43
2010-09-13 06:15:05 51°13.69 2°55.839 2.7 51 15.8 102590 43
2010-09-13 06:15:10 51°13.692 2°55.831 2.2 20 15.9 102590 44
2010-09-13 06:15:15 51°13.694 2°55.822 2.7 51 15.9 102590 44
2010-09-13 06:15:20 51°13.696 2°55.814 2.7 23 15.9 102590 43
2010-09-13 06:15:25 51°13.698 2°55.806 3.1 53 15.9 102590 43
2010-09-13 06:15:31 51°13.699 2°55.796 2.3 20 16 102590 43
2010-09-13 06:15:36 51°13.701 2°55.788 1.6 53 16 102590 43
2010-09-13 06:15:40 51°13.702 2°55.782 1.8 23 16 102600 42
2010-09-13 06:15:46 51°13.703 2°55.774 3 57 16 102600 42
2010-09-13 06:15:51 51°13.704 2°55.767 4.4 21 16 102600 43
2010-09-13 06:15:56 51°13.704 2°55.76 3.9 52 16 102600 43
2010-09-13 06:16:00 51°13.705 2°55.756 2.9 29 16 102600 42
2010-09-13 06:16:05 51°13.705 2°55.751 2.9 51 16 102600 42
2010-09-13 06:16:10 51°13.705 2°55.746 2.4 28 16 102600 43
2010-09-13 06:16:15 51°13.706 2°55.744 2 57 16 102600 43
2010-09-13 06:16:20 51°13.706 2°55.742 1.9 21 16 102600 42
2010-09-13 06:16:24 51°13.706 2°55.742 2.6 52 16 102600 42
2010-09-13 06:16:29 51°13.706 2°55.742 3.2 270 16 102600 42
2010-09-13 06:16:35 51°13.707 2°55.743 2.5 58 16 102600 42
2010-09-13 06:16:40 51°13.707 2°55.744 2.1 270 15.9 102600 41
2010-09-13 06:16:44 51°13.708 2°55.745 2.4 59 15.9 102600 41
2010-09-13 06:16:49 51°13.708 2°55.746 1.6 266 16 102600 41
2010-09-13 06:16:54 51°13.709 2°55.747 2.1 301 16 102600 41
2010-09-13 06:16:59 51°13.708 2°55.746 1.6 267 15.9 102600 41
2010-09-13 06:17:04 51°13.707 2°55.745 2.4 301 15.9 102600 41
2010-09-13 06:17:08 51°13.706 2°55.744 1.2 265 15.9 102600 42
2010-09-13 06:17:13 51°13.705 2°55.741 2.4 310 15.9 102600 42
2010-09-13 06:17:18 51°13.702 2°55.739 2.9 30 15.9 102600 42
2010-09-13 06:17:23 51°13.7 2°55.735 3.3 59 15.9 102600 42
2010-09-13 06:17:28 51°13.698 2°55.733 3.3 22 16 102600 41
2010-09-13 06:17:34 51°13.695 2°55.73 2.5 52 16 102600 41
2010-09-13 06:17:40 51°13.694 2°55.728 1.5 264 15.9 102600 43
2010-09-13 06:17:46 51°13.694 2°55.728 0.4 310 15.9 102600 43
2010-09-13 06:17:51 51°13.694 2°55.728 1.8 248 15.9 102600 43
2010-09-13 06:17:56 51°13.696 2°55.73 0.7 308 15.9 102600 43
2010-09-13 06:18:00 51°13.697 2°55.73 0.8 29 16 102600 41
2010-09-13 06:18:05 51°13.7 2°55.731 2 307 16 102600 41
2010-09-13 06:18:11 51°13.704 2°55.731 3.9 23 16 102600 42
2010-09-13 06:18:16 51°13.708 2°55.731 2.7 304 16 102600 42
2010-09-13 06:18:20 51°13.711 2°55.73 3.2 317 16 102600 42
2010-09-13 06:18:25 51°13.716 2°55.727 4.1 309 16 102600 42
2010-09-13 06:18:30 51°13.721 2°55.724 4.7 317 15.9 102600 41
2010-09-13 06:18:35 51°13.727 2°55.719 4.7 302 15.9 102600 41
2010-09-13 06:18:40 51°13.733 2°55.714 4.9 316 15.9 102600 43
2010-09-13 06:18:44 51°13.739 2°55.71 4.9 304 15.9 102600 43
2010-09-13 06:18:49 51°13.746 2°55.704 4.8 325 15.9 102600 43
2010-09-13 06:18:55 51°13.756 2°55.695 4.7 322 15.9 102600 43
2010-09-13 06:18:59 51°13.763 2°55.689 5.3 22 15.9 102590 41
2010-09-13 06:19:04 51°13.772 2°55.681 5.9 310 15.9 102590 41
2010-09-13 06:19:09 51°13.782 2°55.673 5.8 317 15.9 102590 42
2010-09-13 06:19:14 51°13.792 2°55.664 5.2 307 15.9 102590 42
2010-09-13 06:19:19 51°13.802 2°55.655 5.9 320 15.9 102590 41
2010-09-13 06:19:24 51°13.813 2°55.647 6.1 300 15.9 102590 41
2010-09-13 06:19:28 51°13.822 2°55.639 5.6 324 15.9 102590 41
2010-09-13 06:19:33 51°13.834 2°55.63 5.3 301 15.9 102590 41
2010-09-13 06:19:38 51°13.845 2°55.621 5.2 323 15.9 102590 41
2010-09-13 06:19:43 51°13.858 2°55.612 5.2 306 15.9 102590 41
2010-09-13 06:19:48 51°13.87 2°55.603 6.7 320 15.9 102590 42
2010-09-13 06:19:52 51°13.879 2°55.595 6.4 307 15.9 102590 42
2010-09-13 06:19:57 51°13.892 2°55.586 5.9 24 15.9 102590 41
2010-09-13 06:20:02 51°13.905 2°55.576 7.4 303 15.9 102590 41
2010-09-13 06:20:07 51°13.917 2°55.566 6.6 319 15.9 102590 41
2010-09-13 06:20:12 51°13.929 2°55.556 6 309 15.9 102590 41
2010-09-13 06:20:17 51°13.942 2°55.546 5.3 317 15.9 102580 42
2010-09-13 06:20:22 51°13.954 2°55.537 9 301 15.9 102580 42
2010-09-13 06:20:27 51°13.967 2°55.527 7.8 22 15.9 102580 41
2010-09-13 06:20:32 51°13.98 2°55.517 6.2 325 15.9 102580 41
2010-09-13 06:20:37 51°13.992 2°55.508 6.3 324 15.9 102580 41
2010-09-13 06:20:42 51°14.005 2°55.498 5.9 326 15.9 102580 41
2010-09-13 06:20:47 51°14.019 2°55.49 7.6 322 15.9 102590 43
2010-09-13 06:20:52 51°14.031 2°55.481 7.8 323 15.9 102590 43
2010-09-13 06:20:57 51°14.044 2°55.472 7.2 323 15.9 102580 42
2010-09-13 06:21:02 51°14.058 2°55.463 8.6 307 15.9 102580 42
2010-09-13 06:21:07 51°14.07 2°55.454 7.9 321 15.9 102590 42
2010-09-13 06:21:12 51°14.084 2°55.445 9.3 301 15.9 102590 42
2010-09-13 06:21:17 51°14.097 2°55.437 9.1 321 15.9 102580 42
2010-09-13 06:21:22 51°14.11 2°55.427 10 306 15.9 102580 42
2010-09-13 06:21:27 51°14.123 2°55.418 9.4 320 15.9 102580 42
2010-09-13 06:21:32 51°14.136 2°55.409 10.3 305 15.9 102580 42
2010-09-13 06:21:37 51°14.149 2°55.399 7.6 319 15.9 102580 42
2010-09-13 06:21:42 51°14.162 2°55.39 9.1 309 15.9 102580 42
2010-09-13 06:21:47 51°14.175 2°55.38 9.6 320 15.9 102570 43
2010-09-13 06:21:52 51°14.188 2°55.37 9 310 15.9 102570 43
2010-09-13 06:21:57 51°14.2 2°55.359 8.9 326 15.9 102570 43
2010-09-13 06:22:02 51°14.212 2°55.349 9.5 306 15.9 102570 43
2010-09-13 06:22:07 51°14.225 2°55.338 10.1 318 15.9 102570 43
2010-09-13 06:22:12 51°14.238 2°55.328 8.4 306 15.9 102570 43
2010-09-13 06:22:16 51°14.248 2°55.319 9 321 15.9 102570 43
2010-09-13 06:22:22 51°14.263 2°55.307 9.6 303 15.9 102570 43
2010-09-13 06:22:27 51°14.275 2°55.296 10.4 319 15.9 102570 43
2010-09-13 06:22:32 51°14.288 2°55.285 9 321 15.9 102570 43
2010-09-13 06:22:37 51°14.3 2°55.274 10.4 319 15.9 102570 43
2010-09-13 06:22:42 51°14.312 2°55.263 10.5 304 15.9 102570 43
2010-09-13 06:22:47 51°14.325 2°55.251 8.9 320 15.9 102570 44
2010-09-13 06:22:52 51°14.337 2°55.24 9.7 307 15.9 102570 44
2010-09-13 06:22:57 51°14.349 2°55.228 9.4 321 15.9 102560 43
2010-09-13 06:23:02 51°14.362 2°55.216 10 305 15.9 102560 43
2010-09-13 06:23:08 51°14.376 2°55.202 10.1 322 15.9 102560 43
2010-09-13 06:23:12 51°14.386 2°55.193 10 304 15.9 102560 43
2010-09-13 06:23:17 51°14.398 2°55.18 10.2 320 15.9 102570 43
2010-09-13 06:23:22 51°14.41 2°55.168 9.8 301 15.9 102570 43
2010-09-13 06:23:27 51°14.423 2°55.156 9.9 319 15.9 102570 44
2010-09-13 06:23:32 51°14.435 2°55.145 9.3 306 15.9 102570 44
2010-09-13 06:23:37 51°14.447 2°55.133 9.9 319 15.9 102560 43
2010-09-13 06:23:42 51°14.459 2°55.121 9.3 307 15.9 102560 43
2010-09-13 06:23:47 51°14.471 2°55.11 10.1 318 15.9 102570 43
2010-09-13 06:23:52 51°14.483 2°55.099 10.4 306 15.9 102570 43
2010-09-13 06:23:57 51°14.495 2°55.088 10.3 317 15.9 102570 43
2010-09-13 06:24:02 51°14.508 2°55.076 9.3 304 15.9 102570 43
2010-09-13 06:24:07 51°14.52 2°55.065 9.3 316 15.9 102570 42
2010-09-13 06:24:12 51°14.532 2°55.053 10 307 15.9 102570 42
2010-09-13 06:24:16 51°14.542 2°55.043 10.5 319 15.9 102570 41
2010-09-13 06:24:22 51°14.556 2°55.026 9.9 307 15.9 102570 41
2010-09-13 06:24:27 51°14.566 2°55.011 10.4 321 15.8 102560 42
2010-09-13 06:24:32 51°14.576 2°54.995 10.2 303 15.8 102560 42
2010-09-13 06:24:37 51°14.586 2°54.978 9.9 323 15.8 102570 42
2010-09-13 06:24:42 51°14.595 2°54.959 10.6 326 15.8 102570 42
2010-09-13 06:24:47 51°14.604 2°54.94 10.3 328 15.8 102560 43
2010-09-13 06:24:52 51°14.612 2°54.919 10.3 331 15.8 102560 43
2010-09-13 06:24:57 51°14.619 2°54.897 11.3 333 15.8 102570 42
2010-09-13 06:25:02 51°14.626 2°54.874 11.3 332 15.8 102570 42
2010-09-13 06:25:07 51°14.632 2°54.85 11.4 334 15.9 102570 43
2010-09-13 06:25:12 51°14.637 2°54.826 10.8 335 15.9 102570 43
2010-09-13 06:25:17 51°14.641 2°54.801 10.7 336 15.9 102570 43
2010-09-13 06:25:22 51°14.645 2°54.776 11.4 337 15.9 102570 43
2010-09-13 06:25:27 51°14.647 2°54.749 10.8 336 15.9 102580 42
2010-09-13 06:25:32 51°14.648 2°54.722 11.3 336 15.9 102580 42
2010-09-13 06:25:37 51°14.648 2°54.696 11 338 15.8 102580 43
2010-09-13 06:25:42 51°14.647 2°54.669 10.4 340 15.8 102580 43
2010-09-13 06:25:47 51°14.644 2°54.642 11.2 340 15.9 102570 43
2010-09-13 06:25:52 51°14.641 2°54.615 11.4 342 15.9 102570 43
2010-09-13 06:25:57 51°14.636 2°54.589 12.3 342 15.9 102580 44
2010-09-13 06:26:02 51°14.63 2°54.563 11.7 342 15.9 102580 44
2010-09-13 06:26:07 51°14.624 2°54.537 11.3 343 15.9 102580 44
2010-09-13 06:26:12 51°14.617 2°54.51 10.9 343 15.9 102580 44
2010-09-13 06:26:17 51°14.61 2°54.484 11.7 345 15.9 102570 43
2010-09-13 06:26:22 51°14.602 2°54.458 11.4 345 15.9 102570 43
2010-09-13 06:26:27 51°14.594 2°54.432 11.2 344 15.8 102570 42
2010-09-13 06:26:32 51°14.584 2°54.408 11.7 346 15.8 102570 42
2010-09-13 06:26:36 51°14.577 2°54.388 10.2 345 15.8 102570 42
2010-09-13 06:26:42 51°14.564 2°54.36 12 346 15.8 102570 42
2010-09-13 06:26:47 51°14.553 2°54.336 10.4 347 15.9 102580 43
2010-09-13 06:26:52 51°14.542 2°54.313 10.3 347 15.9 102580 43
2010-09-13 06:26:57 51°14.53 2°54.291 9.9 347 15.9 102560 42
2010-09-13 06:27:02 51°14.518 2°54.268 9.6 347 15.9 102560 42
2010-09-13 06:27:07 51°14.506 2°54.246 10.7 348 15.9 102570 42
2010-09-13 06:27:12 51°14.494 2°54.223 9.9 348 15.9 102570 42
2010-09-13 06:27:16 51°14.485 2°54.205 10.8 347 15.8 102580 42
2010-09-13 06:27:22 51°14.47 2°54.179 9.9 349 15.8 102580 42
2010-09-13 06:27:27 51°14.458 2°54.157 9.2 345 15.9 102580 43
2010-09-13 06:27:32 51°14.447 2°54.135 11.5 346 15.9 102580 43
2010-09-13 06:27:37 51°14.435 2°54.112 10.5 346 15.8 102570 42
2010-09-13 06:27:42 51°14.423 2°54.09 10.2 346 15.8 102570 42
2010-09-13 06:27:47 51°14.411 2°54.068 10.5 348 15.8 102580 43
2010-09-13 06:27:52 51°14.399 2°54.045 10.5 345 15.8 102580 43
2010-09-13 06:27:57 51°14.387 2°54.023 9.5 347 15.8 102580 42
2010-09-13 06:28:02 51°14.376 2°54.001 9.4 344 15.8 102580 42
2010-09-13 06:28:07 51°14.364 2°53.978 10.3 345 15.8 102580 42
2010-09-13 06:28:12 51°14.353 2°53.955 10 346 15.8 102580 42
2010-09-13 06:28:17 51°14.342 2°53.932 9 346 15.8 102580 42
2010-09-13 06:28:22 51°14.331 2°53.908 10.3 346 15.8 102580 42
2010-09-13 06:28:27 51°14.321 2°53.885 9.8 347 15.8 102590 42
2010-09-13 06:28:32 51°14.31 2°53.861 9.1 344 15.8 102590 42
2010-09-13 06:28:37 51°14.299 2°53.838 10.7 346 15.8 102590 42
2010-09-13 06:28:42 51°14.289 2°53.814 11 347 15.8 102590 42
2010-09-13 06:28:47 51°14.278 2°53.79 10.9 349 15.8 102590 42
2010-09-13 06:28:52 51°14.269 2°53.766 10.5 349 15.8 102590 42
2010-09-13 06:28:56 51°14.26 2°53.747 10.3 346 15.9 102590 43
2010-09-13 06:29:02 51°14.248 2°53.718 10.2 348 15.9 102590 43
2010-09-13 06:29:07 51°14.238 2°53.695 9.8 347 15.9 102580 43
2010-09-13 06:29:12 51°14.228 2°53.671 9.6 347 15.9 102580 43
2010-09-13 06:29:17 51°14.217 2°53.648 10.3 347 15.8 102580 43
2010-09-13 06:29:22 51°14.207 2°53.624 10.4 346 15.8 102580 43
2010-09-13 06:29:27 51°14.196 2°53.601 11.1 347 15.8 102580 44
2010-09-13 06:29:32 51°14.186 2°53.577 10.7 348 15.8 102580 44
2010-09-13 06:29:37 51°14.175 2°53.554 11 347 15.9 102590 42
2010-09-13 06:29:42 51°14.165 2°53.53 10.2 344 15.9 102590 42
2010-09-13 06:29:47 51°14.155 2°53.506 10.3 343 15.9 102590 43
2010-09-13 06:29:52 51°14.144 2°53.484 10.8 343 15.9 102590 43
2010-09-13 06:29:57 51°14.134 2°53.459 10.4 343 15.8 102590 44
2010-09-13 06:30:02 51°14.124 2°53.436 10.7 343 15.8 102590 44
2010-09-13 06:30:07 51°14.113 2°53.412 11.1 343 15.9 102590 45
2010-09-13 06:30:12 51°14.103 2°53.389 12.8 344 15.9 102590 45
2010-09-13 06:30:17 51°14.092 2°53.365 11.6 345 15.8 102590 43
2010-09-13 06:30:22 51°14.082 2°53.342 10.6 345 15.8 102590 43
2010-09-13 06:30:27 51°14.072 2°53.318 11.9 345 15.8 102590 42
2010-09-13 06:30:32 51°14.061 2°53.295 11 346 15.8 102590 42
2010-09-13 06:30:37 51°14.05 2°53.272 11.4 346 15.8 102590 42
2010-09-13 06:30:42 51°14.04 2°53.249 10.6 346 15.8 102590 42
2010-09-13 06:30:47 51°14.029 2°53.224 10.1 346 15.8 102580 42
2010-09-13 06:30:52 51°14.019 2°53.201 10.8 346 15.8 102580 42
2010-09-13 06:30:57 51°14.008 2°53.177 10.6 347 15.8 102580 41
2010-09-13 06:31:02 51°13.998 2°53.153 10.2 344 15.8 102580 41
2010-09-13 06:31:07 51°13.988 2°53.129 10.7 345 15.8 102580 41
2010-09-13 06:31:12 51°13.978 2°53.105 10.2 346 15.8 102580 41
2010-09-13 06:31:16 51°13.969 2°53.087 10.1 343 15.8 102590 41
2010-09-13 06:31:22 51°13.957 2°53.058 11.4 344 15.8 102590 41
2010-09-13 06:31:27 51°13.946 2°53.035 10.7 345 15.9 102590 42
2010-09-13 06:31:32 51°13.936 2°53.011 11 345 15.9 102590 42
2010-09-13 06:31:37 51°13.925 2°52.988 10.3 345 15.8 102590 41
2010-09-13 06:31:42 51°13.914 2°52.964 11.6 348 15.8 102590 41
2010-09-13 06:31:47 51°13.904 2°52.94 10.7 344 15.9 102590 42
2010-09-13 06:31:52 51°13.893 2°52.917 12.2 346 15.9 102590 42
2010-09-13 06:31:57 51°13.883 2°52.894 10.7 347 15.9 102590 41
2010-09-13 06:32:02 51°13.872 2°52.871 11 347 15.9 102590 41
2010-09-13 06:32:07 51°13.862 2°52.848 10.4 348 15.9 102590 41
2010-09-13 06:32:12 51°13.851 2°52.824 10.3 346 15.9 102590 41
2010-09-13 06:32:17 51°13.84 2°52.8 10.6 347 15.9 102590 41
2010-09-13 06:32:22 51°13.83 2°52.776 10.3 347 15.9 102590 41
2010-09-13 06:32:27 51°13.82 2°52.752 10 346 15.9 102590 42
2010-09-13 06:32:32 51°13.809 2°52.728 9.8 346 15.9 102590 42
2010-09-13 06:32:37 51°13.799 2°52.705 11.2 344 15.8 102590 41
2010-09-13 06:32:42 51°13.788 2°52.68 10.4 346 15.8 102590 41
2010-09-13 06:32:47 51°13.777 2°52.657 10.4 345 15.9 102590 42
2010-09-13 06:32:52 51°13.767 2°52.633 9.5 345 15.9 102590 42
2010-09-13 06:32:57 51°13.757 2°52.609 10.7 344 15.9 102590 42
2010-09-13 06:33:02 51°13.746 2°52.585 11.5 344 15.9 102590 42
2010-09-13 06:33:07 51°13.736 2°52.562 10.9 346 15.9 102590 42
2010-09-13 06:33:12 51°13.725 2°52.537 10.2 344 15.9 102590 42
2010-09-13 06:33:17 51°13.715 2°52.513 10.7 343 15.9 102590 43
2010-09-13 06:33:22 51°13.704 2°52.49 10.4 346 15.9 102590 43
2010-09-13 06:33:27 51°13.694 2°52.465 9.8 345 15.9 102590 42
2010-09-13 06:33:32 51°13.683 2°52.442 10 345 15.9 102590 42
2010-09-13 06:33:37 51°13.672 2°52.418 9.9 344 15.9 102590 43
2010-09-13 06:33:42 51°13.661 2°52.394 10.4 346 15.9 102590 43
2010-09-13 06:33:47 51°13.651 2°52.37 10.8 344 15.9 102600 43
2010-09-13 06:33:52 51°13.64 2°52.347 11.3 343 15.9 102600 43
2010-09-13 06:33:57 51°13.63 2°52.322 10.9 343 15.9 102590 43
2010-09-13 06:34:02 51°13.619 2°52.298 11 344 15.9 102590 43
2010-09-13 06:34:07 51°13.608 2°52.274 11.3 344 15.9 102590 42
2010-09-13 06:34:12 51°13.598 2°52.251 10.9 346 15.9 102590 42
2010-09-13 06:34:17 51°13.587 2°52.226 11.2 345 15.9 102590 42
2010-09-13 06:34:22 51°13.577 2°52.203 11.1 346 15.9 102590 42
2010-09-13 06:34:27 51°13.566 2°52.179 10.8 345 15.9 102600 42
2010-09-13 06:34:32 51°13.555 2°52.155 10.8 344 15.9 102600 42
2010-09-13 06:34:37 51°13.545 2°52.131 11.1 342 15.9 102590 42
2010-09-13 06:34:42 51°13.534 2°52.108 11 346 15.9 102590 42
2010-09-13 06:34:47 51°13.523 2°52.084 11.3 345 15.9 102590 42
2010-09-13 06:34:52 51°13.512 2°52.059 9.7 344 15.9 102590 42
2010-09-13 06:34:57 51°13.502 2°52.036 10.4 344 15.9 102590 42
2010-09-13 06:35:02 51°13.491 2°52.011 12.5 344 15.9 102590 42
2010-09-13 06:35:07 51°13.481 2°51.987 11.4 344 15.9 102590 41
2010-09-13 06:35:12 51°13.47 2°51.964 11.1 344 15.9 102590 41
2010-09-13 06:35:17 51°13.459 2°51.94 10.5 345 15.9 102590 42
2010-09-13 06:35:22 51°13.448 2°51.916 10.9 345 15.9 102590 42
2010-09-13 06:35:27 51°13.438 2°51.891 10.5 344 15.9 102600 42
2010-09-13 06:35:32 51°13.427 2°51.868 10.5 346 15.9 102600 42
2010-09-13 06:35:37 51°13.417 2°51.844 10 345 15.9 102600 42
2010-09-13 06:35:42 51°13.406 2°51.82 10.3 345 15.9 102600 42
2010-09-13 06:35:47 51°13.395 2°51.796 10.3 345 15.9 102600 42
2010-09-13 06:35:52 51°13.385 2°51.773 10.8 344 15.9 102600 42
2010-09-13 06:35:56 51°13.376 2°51.753 9.4 344 15.8 102600 41
2010-09-13 06:36:02 51°13.363 2°51.725 9.2 346 15.8 102600 41
2010-09-13 06:36:07 51°13.352 2°51.701 10.4 345 15.8 102600 41
2010-09-13 06:36:12 51°13.341 2°51.677 11.4 344 15.8 102600 41
2010-09-13 06:36:17 51°13.331 2°51.654 10.2 344 15.9 102600 42
2010-09-13 06:36:22 51°13.32 2°51.63 10.6 278 15.9 102600 42
2010-09-13 06:36:27 51°13.309 2°51.607 10.3 343 15.9 102600 42
2010-09-13 06:36:32 51°13.298 2°51.583 11.2 342 15.9 102600 42
2010-09-13 06:36:37 51°13.288 2°51.559 11 344 15.9 102590 42
2010-09-13 06:36:42 51°13.277 2°51.535 10.5 343 15.9 102590 42
2010-09-13 06:36:47 51°13.266 2°51.512 10.8 343 15.9 102590 41
2010-09-13 06:36:52 51°13.256 2°51.488 10 343 15.9 102590 41
2010-09-13 06:36:57 51°13.245 2°51.464 11.2 343 15.9 102600 42
2010-09-13 06:37:02 51°13.234 2°51.44 9.8 345 15.9 102600 42
2010-09-13 06:37:07 51°13.224 2°51.416 10.1 345 15.9 102600 41
2010-09-13 06:37:12 51°13.213 2°51.392 10.2 346 15.9 102600 41
2010-09-13 06:37:17 51°13.203 2°51.368 10.6 345 15.9 102600 40
2010-09-13 06:37:22 51°13.192 2°51.344 10.3 282 15.9 102600 40
2010-09-13 06:37:27 51°13.181 2°51.32 10.1 343 15.8 102600 41
2010-09-13 06:37:32 51°13.171 2°51.296 10.7 345 15.8 102600 41
2010-09-13 06:37:37 51°13.16 2°51.272 10.9 345 15.9 102590 41
2010-09-13 06:37:42 51°13.149 2°51.249 9.9 341 15.9 102590 41
2010-09-13 06:37:47 51°13.139 2°51.224 10 342 15.9 102590 42
2010-09-13 06:37:52 51°13.128 2°51.2 10.5 344 15.9 102590 42
2010-09-13 06:37:57 51°13.118 2°51.176 9.8 344 15.9 102600 42
2010-09-13 06:38:02 51°13.107 2°51.152 10.2 344 15.9 102600 42
2010-09-13 06:38:07 51°13.096 2°51.129 9.4 343 15.9 102600 42
2010-09-13 06:38:12 51°13.086 2°51.106 9.9 340 15.9 102600 42
2010-09-13 06:38:16 51°13.077 2°51.086 9.6 343 15.9 102600 41
2010-09-13 06:38:22 51°13.064 2°51.057 9.9 285 15.9 102600 41
2010-09-13 06:38:27 51°13.053 2°51.034 10 343 15.9 102590 41
2010-09-13 06:38:32 51°13.043 2°51.009 11 342 15.9 102590 41
2010-09-13 06:38:37 51°13.032 2°50.986 10.3 342 15.9 102600 41
2010-09-13 06:38:42 51°13.021 2°50.962 10.4 343 15.9 102600 41
2010-09-13 06:38:47 51°13.011 2°50.938 10.6 343 15.9 102590 42
2010-09-13 06:38:52 51°13 2°50.914 10.6 344 15.9 102590 42
2010-09-13 06:38:57 51°12.99 2°50.89 10 343 15.9 102590 41
2010-09-13 06:39:02 51°12.979 2°50.866 10 345 15.9 102590 41
2010-09-13 06:39:07 51°12.968 2°50.843 10.4 343 15.9 102590 42
2010-09-13 06:39:12 51°12.957 2°50.819 10.5 344 15.9 102590 42
2010-09-13 06:39:17 51°12.947 2°50.795 10.5 343 15.9 102590 41
2010-09-13 06:39:22 51°12.936 2°50.771 10.1 345 15.9 102590 41
2010-09-13 06:39:27 51°12.926 2°50.747 10.6 343 15.9 102590 41
2010-09-13 06:39:32 51°12.915 2°50.723 10.4 344 15.9 102590 41
2010-09-13 06:39:37 51°12.904 2°50.699 11 346 15.9 102600 41
2010-09-13 06:39:42 51°12.894 2°50.675 9.9 345 15.9 102600 41
2010-09-13 06:39:47 51°12.883 2°50.651 10.1 345 15.9 102590 41
2010-09-13 06:39:52 51°12.872 2°50.627 10.4 342 15.9 102590 41
2010-09-13 06:39:57 51°12.862 2°50.603 10.6 341 15.9 102590 41
2010-09-13 06:40:02 51°12.851 2°50.58 10.5 342 15.9 102590 41
2010-09-13 06:40:07 51°12.84 2°50.556 10.8 341 15.9 102590 41
2010-09-13 06:40:12 51°12.83 2°50.532 10 343 15.9 102590 41
2010-09-13 06:40:16 51°12.821 2°50.513 11.1 342 15.9 102590 41
2010-09-13 06:40:22 51°12.809 2°50.484 10.6 342 15.9 102590 41
2010-09-13 06:40:27 51°12.798 2°50.461 10.1 343 15.9 102590 42
2010-09-13 06:40:32 51°12.787 2°50.437 11.4 343 15.9 102590 42
2010-09-13 06:40:37 51°12.776 2°50.414 10.6 341 15.9 102590 41
2010-09-13 06:40:42 51°12.765 2°50.39 10.4 343 15.9 102590 41
2010-09-13 06:40:47 51°12.755 2°50.366 10.8 340 15.9 102590 42
2010-09-13 06:40:52 51°12.744 2°50.343 9.9 343 15.9 102590 42
2010-09-13 06:40:57 51°12.733 2°50.319 9.5 342 15.9 102590 42
2010-09-13 06:41:02 51°12.723 2°50.295 10.1 342 15.9 102590 42
2010-09-13 06:41:07 51°12.712 2°50.271 9.6 343 15.9 102590 42
2010-09-13 06:41:12 51°12.702 2°50.247 10.6 344 15.9 102590 42
2010-09-13 06:41:17 51°12.691 2°50.223 11 344 15.9 102590 42
2010-09-13 06:41:22 51°12.68 2°50.199 9.7 345 15.9 102590 42
2010-09-13 06:41:27 51°12.669 2°50.175 10.1 346 15.9 102590 42
2010-09-13 06:41:32 51°12.659 2°50.151 9.8 342 15.9 102590 42
2010-09-13 06:41:37 51°12.648 2°50.127 10.2 343 15.9 102590 42
2010-09-13 06:41:42 51°12.638 2°50.103 10 342 15.9 102590 42
2010-09-13 06:41:47 51°12.627 2°50.08 9.6 343 15.8 102590 40
2010-09-13 06:41:52 51°12.617 2°50.055 9.1 345 15.8 102590 40
2010-09-13 06:41:57 51°12.606 2°50.032 10 344 15.9 102590 41
2010-09-13 06:42:02 51°12.595 2°50.008 10.7 343 15.9 102590 41
2010-09-13 06:42:07 51°12.585 2°49.983 11.3 342 15.9 102590 42
2010-09-13 06:42:12 51°12.574 2°49.959 12.2 343 15.9 102590 42
2010-09-13 06:42:17 51°12.564 2°49.935 11 342 15.9 102590 42
2010-09-13 06:42:22 51°12.553 2°49.911 10.6 282 15.9 102590 42
2010-09-13 06:42:27 51°12.543 2°49.887 10.5 344 15.9 102590 42
2010-09-13 06:42:32 51°12.531 2°49.864 10.6 347 15.9 102590 42
2010-09-13 06:42:36 51°12.523 2°49.844 10.9 346 15.9 102600 43
2010-09-13 06:42:42 51°12.51 2°49.816 10.3 346 15.9 102600 43
2010-09-13 06:42:47 51°12.5 2°49.791 10.4 344 15.9 102590 42
2010-09-13 06:42:52 51°12.49 2°49.767 9.6 342 15.9 102590 42
2010-09-13 06:42:56 51°12.483 2°49.747 10.5 340 15.9 102590 41
2010-09-13 06:43:02 51°12.471 2°49.717 11.2 341 15.9 102590 41
2010-09-13 06:43:07 51°12.463 2°49.691 10.6 339 15.9 102590 42
2010-09-13 06:43:12 51°12.454 2°49.665 10.2 342 15.9 102590 42
2010-09-13 06:43:17 51°12.445 2°49.64 11.5 340 15.9 102590 43
2010-09-13 06:43:22 51°12.437 2°49.614 10.4 281 15.9 102590 43
2010-09-13 06:43:27 51°12.429 2°49.588 10.9 342 15.9 102590 43
2010-09-13 06:43:32 51°12.42 2°49.562 10.4 343 15.9 102590 43
2010-09-13 06:43:37 51°12.412 2°49.536 10.4 344 15.9 102600 42
2010-09-13 06:43:42 51°12.403 2°49.51 11 343 15.9 102600 42
2010-09-13 06:43:47 51°12.396 2°49.484 10.2 343 15.9 102590 42
2010-09-13 06:43:52 51°12.387 2°49.458 10.2 344 15.9 102590 42
2010-09-13 06:43:57 51°12.379 2°49.431 10.1 343 15.9 102600 43
2010-09-13 06:44:02 51°12.371 2°49.405 10.4 344 15.9 102600 43
2010-09-13 06:44:07 51°12.362 2°49.379 9.9 342 15.9 102600 42
2010-09-13 06:44:12 51°12.354 2°49.353 10.3 342 15.9 102600 42
2010-09-13 06:44:16 51°12.347 2°49.332 9.7 341 15.9 102600 42
2010-09-13 06:44:22 51°12.337 2°49.3 9.8 286 15.9 102600 42
2010-09-13 06:44:27 51°12.329 2°49.274 10.4 339 15.9 102600 42
2010-09-13 06:44:32 51°12.32 2°49.248 10 339 15.9 102600 42
2010-09-13 06:44:37 51°12.312 2°49.221 10.4 340 15.9 102600 43
2010-09-13 06:44:42 51°12.303 2°49.195 10.5 344 15.9 102600 43
2010-09-13 06:44:47 51°12.295 2°49.169 10.8 343 15.9 102600 42
2010-09-13 06:44:52 51°12.287 2°49.143 11.7 345 15.9 102600 42
2010-09-13 06:44:56 51°12.28 2°49.122 10.4 343 16 102600 43
2010-09-13 06:45:02 51°12.27 2°49.09 10.4 342 16 102600 43
2010-09-13 06:45:07 51°12.261 2°49.063 10.4 342 15.9 102590 42
2010-09-13 06:45:12 51°12.253 2°49.037 10.9 342 15.9 102590 42
2010-09-13 06:45:17 51°12.245 2°49.011 10.9 342 16 102590 44
2010-09-13 06:45:22 51°12.237 2°48.984 9.7 278 16 102590 44
2010-09-13 06:45:27 51°12.229 2°48.957 10.4 341 16 102600 43
2010-09-13 06:45:32 51°12.22 2°48.932 9.3 343 16 102600 43
2010-09-13 06:45:37 51°12.212 2°48.906 9.7 342 15.9 102590 42
2010-09-13 06:45:42 51°12.203 2°48.879 9.8 342 15.9 102590 42
2010-09-13 06:45:47 51°12.195 2°48.852 10.7 340 15.9 102600 42
2010-09-13 06:45:52 51°12.186 2°48.826 10.4 341 15.9 102600 42
2010-09-13 06:45:57 51°12.178 2°48.8 11.2 341 15.9 102600 42
2010-09-13 06:46:02 51°12.17 2°48.773 11.9 339 15.9 102600 42
2010-09-13 06:46:07 51°12.161 2°48.747 10.2 342 15.9 102600 43
2010-09-13 06:46:12 51°12.153 2°48.721 11.6 338 15.9 102600 43
2010-09-13 06:46:17 51°12.144 2°48.695 10.8 341 15.9 102600 42
2010-09-13 06:46:22 51°12.137 2°48.668 10.3 286 15.9 102600 42
2010-09-13 06:46:27 51°12.128 2°48.641 10.9 339 16 102600 43
2010-09-13 06:46:32 51°12.12 2°48.615 11.4 339 16 102600 43
2010-09-13 06:46:37 51°12.112 2°48.588 10.8 339 15.9 102590 44
2010-09-13 06:46:42 51°12.104 2°48.562 10.1 338 15.9 102590 44
2010-09-13 06:46:47 51°12.095 2°48.535 10.2 342 16 102600 44
2010-09-13 06:46:52 51°12.087 2°48.509 9.8 340 16 102600 44
2010-09-13 06:46:56 51°12.08 2°48.488 9.8 339 15.9 102600 43
2010-09-13 06:47:02 51°12.07 2°48.456 10.2 341 15.9 102600 43
2010-09-13 06:47:07 51°12.062 2°48.429 11 339 15.9 102600 42
2010-09-13 06:47:12 51°12.053 2°48.403 10.6 340 15.9 102600 42
2010-09-13 06:47:17 51°12.045 2°48.376 10.5 339 15.9 102600 43
2010-09-13 06:47:22 51°12.037 2°48.35 10.4 279 15.9 102600 43
2010-09-13 06:47:27 51°12.028 2°48.323 10.4 341 15.9 102610 43
2010-09-13 06:47:32 51°12.02 2°48.297 11.1 339 15.9 102610 43
2010-09-13 06:47:37 51°12.011 2°48.27 11 340 15.9 102600 43
2010-09-13 06:47:42 51°12.003 2°48.244 10.7 339 15.9 102600 43
2010-09-13 06:47:47 51°11.994 2°48.218 10.8 340 15.9 102600 42
2010-09-13 06:47:52 51°11.986 2°48.192 10.6 340 15.9 102600 42
2010-09-13 06:47:57 51°11.977 2°48.165 11.5 341 15.9 102610 43
2010-09-13 06:48:02 51°11.97 2°48.139 12.3 341 15.9 102610 43
2010-09-13 06:48:07 51°11.961 2°48.112 11.2 341 15.9 102600 43
2010-09-13 06:48:12 51°11.953 2°48.085 11.1 341 15.9 102600 43
2010-09-13 06:48:17 51°11.945 2°48.059 10.7 341 15.9 102600 41
2010-09-13 06:48:22 51°11.936 2°48.033 11.5 286 15.9 102600 41
2010-09-13 06:48:27 51°11.928 2°48.006 11.8 342 15.9 102600 42
2010-09-13 06:48:32 51°11.92 2°47.98 11 343 15.9 102600 42
2010-09-13 06:48:37 51°11.912 2°47.953 10.5 342 15.9 102600 42
2010-09-13 06:48:42 51°11.904 2°47.927 10.1 343 15.9 102600 42
2010-09-13 06:48:47 51°11.895 2°47.9 10.9 340 15.9 102600 42
2010-09-13 06:48:52 51°11.887 2°47.873 10.8 343 15.9 102600 42
2010-09-13 06:48:57 51°11.878 2°47.847 10.9 343 15.9 102600 42
2010-09-13 06:49:02 51°11.87 2°47.82 10.4 342 15.9 102600 42
2010-09-13 06:49:07 51°11.862 2°47.794 11.2 343 15.9 102600 42
2010-09-13 06:49:12 51°11.853 2°47.768 9.7 342 15.9 102600 42
2010-09-13 06:49:16 51°11.847 2°47.747 10.8 344 15.9 102610 43
2010-09-13 06:49:22 51°11.837 2°47.715 10.2 344 15.9 102610 43
2010-09-13 06:49:27 51°11.829 2°47.688 9.9 344 15.9 102600 42
2010-09-13 06:49:32 51°11.82 2°47.662 10.1 344 15.9 102600 42
2010-09-13 06:49:36 51°11.813 2°47.64 10.6 342 15.9 102600 42
2010-09-13 06:49:42 51°11.803 2°47.609 9.6 341 15.9 102600 42
2010-09-13 06:49:47 51°11.795 2°47.582 9.4 344 15.9 102600 42
2010-09-13 06:49:52 51°11.787 2°47.556 10.2 343 15.9 102600 42
2010-09-13 06:49:57 51°11.778 2°47.529 10 343 15.9 102600 42
2010-09-13 06:50:02 51°11.77 2°47.503 10 343 15.9 102600 42
2010-09-13 06:50:07 51°11.761 2°47.476 11.5 343 15.9 102600 43
2010-09-13 06:50:12 51°11.753 2°47.45 10.1 339 15.9 102600 43
2010-09-13 06:50:17 51°11.745 2°47.423 10.4 342 15.9 102600 42
2010-09-13 06:50:22 51°11.736 2°47.397 10.7 340 15.9 102600 42
2010-09-13 06:50:27 51°11.728 2°47.37 10.6 340 15.9 102600 43
2010-09-13 06:50:32 51°11.719 2°47.344 10.3 342 15.9 102600 43
2010-09-13 06:50:37 51°11.71 2°47.317 10.9 341 15.9 102610 43
2010-09-13 06:50:42 51°11.702 2°47.291 10.6 341 15.9 102610 43
2010-09-13 06:50:47 51°11.694 2°47.264 9.6 342 15.9 102610 44
2010-09-13 06:50:52 51°11.685 2°47.238 10.5 340 15.9 102610 44
2010-09-13 06:50:56 51°11.679 2°47.217 11.6 338 15.9 102610 41
2010-09-13 06:51:02 51°11.669 2°47.185 11.8 340 15.9 102610 41
2010-09-13 06:51:07 51°11.66 2°47.158 11.2 340 15.9 102610 42
2010-09-13 06:51:12 51°11.652 2°47.132 11.4 341 15.9 102610 42
2010-09-13 06:51:16 51°11.645 2°47.111 10.9 340 15.9 102610 43
2010-09-13 06:51:22 51°11.635 2°47.079 11 341 15.9 102610 43
2010-09-13 06:51:27 51°11.627 2°47.052 10.5 342 15.9 102610 43
2010-09-13 06:51:32 51°11.618 2°47.026 11 341 15.9 102610 43
2010-09-13 06:51:37 51°11.61 2°46.999 10.9 339 15.9 102610 42
2010-09-13 06:51:42 51°11.602 2°46.973 10.5 341 15.9 102610 42
2010-09-13 06:51:47 51°11.593 2°46.946 10.4 341 15.9 102610 42
2010-09-13 06:51:52 51°11.585 2°46.92 10.7 341 15.9 102610 42
2010-09-13 06:51:56 51°11.578 2°46.899 10.7 341 15.9 102600 41
2010-09-13 06:52:02 51°11.568 2°46.866 10.5 339 15.9 102600 41
2010-09-13 06:52:07 51°11.559 2°46.84 11 339 15.9 102600 41
2010-09-13 06:52:12 51°11.551 2°46.813 12 342 15.9 102600 41
2010-09-13 06:52:16 51°11.544 2°46.792 11.6 339 15.9 102600 42
2010-09-13 06:52:22 51°11.534 2°46.76 11.7 340 15.9 102600 42
2010-09-13 06:52:27 51°11.526 2°46.733 11.2 340 15.9 102610 42
2010-09-13 06:52:32 51°11.517 2°46.706 11.8 342 15.9 102610 42
2010-09-13 06:52:37 51°11.509 2°46.68 11 340 15.9 102600 41
2010-09-13 06:52:42 51°11.501 2°46.653 10.5 341 15.9 102600 41
2010-09-13 06:52:47 51°11.493 2°46.626 10.5 340 15.9 102600 42
2010-09-13 06:52:52 51°11.484 2°46.599 10 342 15.9 102600 42
2010-09-13 06:52:57 51°11.476 2°46.573 10.6 341 15.9 102600 41
2010-09-13 06:53:02 51°11.467 2°46.546 10.8 340 15.9 102600 41
2010-09-13 06:53:07 51°11.459 2°46.519 10.6 340 15.9 102600 41
2010-09-13 06:53:12 51°11.451 2°46.492 11.1 341 15.9 102600 41
2010-09-13 06:53:17 51°11.442 2°46.465 10 340 15.9 102600 42
2010-09-13 06:53:22 51°11.434 2°46.438 11.2 342 15.9 102600 42
2010-09-13 06:53:27 51°11.426 2°46.411 11.3 341 15.9 102600 41
2010-09-13 06:53:32 51°11.417 2°46.384 11.4 341 15.9 102600 41
2010-09-13 06:53:36 51°11.411 2°46.363 10.2 340 16 102600 41
2010-09-13 06:53:42 51°11.4 2°46.331 10.2 342 16 102600 41
2010-09-13 06:53:47 51°11.392 2°46.304 10.5 339 15.9 102590 41
2010-09-13 06:53:52 51°11.383 2°46.277 11.8 341 15.9 102590 41
2010-09-13 06:53:56 51°11.377 2°46.255 10.7 341 16 102600 41
2010-09-13 06:54:02 51°11.367 2°46.223 10.1 341 16 102600 41
2010-09-13 06:54:07 51°11.358 2°46.196 11.1 342 16 102600 42
2010-09-13 06:54:12 51°11.35 2°46.169 10.9 341 16 102600 42
2010-09-13 06:54:17 51°11.342 2°46.142 10.5 341 16 102600 41
2010-09-13 06:54:22 51°11.333 2°46.115 10.7 340 16 102600 41
2010-09-13 06:54:27 51°11.325 2°46.089 10.8 340 16 102590 41
2010-09-13 06:54:32 51°11.316 2°46.062 11.5 339 16 102590 41
2010-09-13 06:54:37 51°11.308 2°46.036 10.7 341 16 102590 41
2010-09-13 06:54:42 51°11.299 2°46.009 10.8 338 16 102590 41
2010-09-13 06:54:47 51°11.291 2°45.982 11.3 338 16 102590 41
2010-09-13 06:54:52 51°11.283 2°45.955 10.9 339 16 102590 41
2010-09-13 06:54:57 51°11.274 2°45.928 11.4 340 16 102590 41
2010-09-13 06:55:02 51°11.266 2°45.902 11.9 339 16 102590 41
2010-09-13 06:55:07 51°11.257 2°45.875 11.6 337 16 102600 42
2010-09-13 06:55:12 51°11.249 2°45.848 12.5 339 16 102600 42
2010-09-13 06:55:17 51°11.24 2°45.822 11.6 340 16 102600 42
2010-09-13 06:55:22 51°11.232 2°45.795 11.4 340 16 102600 42
2010-09-13 06:55:27 51°11.223 2°45.768 11.3 340 16 102590 42
2010-09-13 06:55:32 51°11.215 2°45.741 10.9 337 16 102590 42
2010-09-13 06:55:37 51°11.206 2°45.715 10.4 338 16 102590 42
2010-09-13 06:55:42 51°11.199 2°45.688 12 338 16 102590 42
2010-09-13 06:55:47 51°11.19 2°45.661 11.7 338 16 102590 41
2010-09-13 06:55:52 51°11.182 2°45.634 11.2 338 16 102590 41
2010-09-13 06:55:56 51°11.175 2°45.613 10.9 337 16 102590 42
2010-09-13 06:56:02 51°11.165 2°45.581 11.1 339 16 102590 42
2010-09-13 06:56:07 51°11.156 2°45.555 10.9 338 16 102590 42
2010-09-13 06:56:12 51°11.148 2°45.527 10.5 338 16 102590 42
2010-09-13 06:56:16 51°11.141 2°45.506 11.4 338 16 102590 41
2010-09-13 06:56:22 51°11.131 2°45.474 10.5 337 16 102590 41
2010-09-13 06:56:27 51°11.123 2°45.447 10.3 339 16 102590 41
2010-09-13 06:56:32 51°11.114 2°45.42 10.6 337 16 102590 41
2010-09-13 06:56:37 51°11.106 2°45.393 10.1 339 16 102600 41
2010-09-13 06:56:42 51°11.098 2°45.366 10.8 339 16 102600 41
2010-09-13 06:56:47 51°11.089 2°45.339 11.2 338 16 102600 42
2010-09-13 06:56:52 51°11.081 2°45.313 11.2 338 16 102600 42
2010-09-13 06:56:57 51°11.073 2°45.286 11.3 340 16 102600 41
2010-09-13 06:57:02 51°11.064 2°45.259 11.5 339 16 102600 41
2010-09-13 06:57:07 51°11.055 2°45.232 11.9 341 16 102610 43
2010-09-13 06:57:12 51°11.048 2°45.204 11.8 340 16 102610 43
2010-09-13 06:57:17 51°11.039 2°45.177 11.1 341 16 102600 42
2010-09-13 06:57:22 51°11.031 2°45.151 10.6 285 16 102600 42
2010-09-13 06:57:27 51°11.022 2°45.126 9.8 339 16 102600 42
2010-09-13 06:57:32 51°11.015 2°45.102 9.7 340 16 102600 42
2010-09-13 06:57:37 51°11.008 2°45.078 10.1 340 16 102600 41
2010-09-13 06:57:42 51°11.001 2°45.055 9.3 342 16 102600 41
2010-09-13 06:57:47 51°10.994 2°45.034 9.3 342 16 102590 41
2010-09-13 06:57:52 51°10.988 2°45.014 9.2 342 16 102590 41
2010-09-13 06:57:56 51°10.984 2°44.999 8.9 343 16 102600 41
2010-09-13 06:58:02 51°10.977 2°44.978 7.4 341 16 102600 41
2010-09-13 06:58:07 51°10.972 2°44.96 7.2 339 16 102600 41
2010-09-13 06:58:12 51°10.967 2°44.943 7.1 339 16 102600 41
2010-09-13 06:58:16 51°10.963 2°44.93 7.4 339 16 102600 41
2010-09-13 06:58:22 51°10.957 2°44.912 7.4 340 16 102600 41
2010-09-13 06:58:27 51°10.952 2°44.896 7.2 340 16 102610 43
2010-09-13 06:58:32 51°10.948 2°44.882 7.5 340 16 102610 43
2010-09-13 06:58:37 51°10.943 2°44.867 7.5 341 16 102610 43
2010-09-13 06:58:42 51°10.939 2°44.854 7.6 340 16 102610 43
2010-09-13 06:58:47 51°10.934 2°44.84 7.5 341 16 102610 43
2010-09-13 06:58:52 51°10.93 2°44.827 7.4 344 16 102610 43
2010-09-13 06:58:56 51°10.926 2°44.816 7.1 345 16 102610 42
2010-09-13 06:59:02 51°10.921 2°44.8 7.8 342 16 102610 42
2010-09-13 06:59:07 51°10.916 2°44.787 7.1 344 16 102610 42
2010-09-13 06:59:12 51°10.912 2°44.775 6.9 346 16 102610 42
2010-09-13 06:59:16 51°10.909 2°44.766 6.4 347 16 102610 42
2010-09-13 06:59:22 51°10.905 2°44.752 7.2 282 16 102610 42
2010-09-13 06:59:27 51°10.901 2°44.742 6.4 345 16 102610 43
2010-09-13 06:59:32 51°10.898 2°44.732 6.4 343 16 102610 43
2010-09-13 06:59:37 51°10.896 2°44.723 6.6 339 16 102610 41
2010-09-13 06:59:42 51°10.893 2°44.714 6.6 339 16 102610 41
2010-09-13 06:59:47 51°10.892 2°44.706 6.3 339 16 102610 42
2010-09-13 06:59:52 51°10.891 2°44.699 6.1 338 16 102610 42
2010-09-13 06:59:57 51°10.89 2°44.692 6.7 336 16 102620 43
2010-09-13 07:00:02 51°10.889 2°44.686 6.8 335 16 102620 43
2010-09-13 07:00:07 51°10.889 2°44.681 5.9 334 16 102610 43
2010-09-13 07:00:12 51°10.888 2°44.676 6 332 16 102610 43
2010-09-13 07:00:17 51°10.888 2°44.671 5.4 331 16 102610 42
2010-09-13 07:00:22 51°10.888 2°44.667 5.5 331 16 102610 42
2010-09-13 07:00:27 51°10.888 2°44.664 5.5 330 16 102620 41
2010-09-13 07:00:32 51°10.887 2°44.66 5.2 328 16 102620 41
2010-09-13 07:00:36 51°10.887 2°44.658 5.3 327 16 102610 41
2010-09-13 07:00:42 51°10.887 2°44.656 5.3 326 16 102610 41
2010-09-13 07:00:47 51°10.887 2°44.654 4.8 323 15.9 102610 41
2010-09-13 07:00:52 51°10.887 2°44.652 4.3 305 15.9 102610 41
2010-09-13 07:00:57 51°10.886 2°44.651 5.2 321 15.9 102610 40
2010-09-13 07:01:02 51°10.886 2°44.65 4.7 305 15.9 102610 40
2010-09-13 07:01:07 51°10.885 2°44.65 4.9 321 15.9 102620 40
2010-09-13 07:01:12 51°10.885 2°44.65 4.5 307 15.9 102620 40
2010-09-13 07:01:17 51°10.884 2°44.65 4.6 320 15.9 102610 41
2010-09-13 07:01:22 51°10.884 2°44.649 4.7 284 15.9 102610 41
2010-09-13 07:01:27 51°10.883 2°44.649 4.1 320 15.9 102620 40
2010-09-13 07:01:32 51°10.882 2°44.649 4.3 307 15.9 102620 40
2010-09-13 07:01:37 51°10.882 2°44.649 4 322 16 102610 40
2010-09-13 07:01:42 51°10.881 2°44.649 4.2 306 16 102610 40
2010-09-13 07:01:47 51°10.881 2°44.649 3.7 320 16 102610 40
2010-09-13 07:01:52 51°10.88 2°44.649 3.8 302 16 102610 40
2010-09-13 07:01:57 51°10.879 2°44.648 4 316 16 102610 41
2010-09-13 07:02:02 51°10.879 2°44.649 5.2 307 16 102610 41
2010-09-13 07:02:07 51°10.878 2°44.648 5.2 316 16 102620 40
2010-09-13 07:02:12 51°10.878 2°44.648 6.1 301 16 102620 40
2010-09-13 07:02:17 51°10.878 2°44.648 6 28 16 102610 41
2010-09-13 07:02:22 51°10.877 2°44.648 5.3 284 16 102610 41
2010-09-13 07:02:27 51°10.876 2°44.649 5.2 26 16 102610 41
2010-09-13 07:02:32 51°10.876 2°44.648 5.7 301 16 102610 41
2010-09-13 07:02:36 51°10.875 2°44.649 5.7 21 16 102620 41
2010-09-13 07:02:42 51°10.875 2°44.649 5.5 302 16 102620 41
2010-09-13 07:02:47 51°10.874 2°44.649 5.4 21 16 102610 41
2010-09-13 07:02:52 51°10.873 2°44.649 5.4 302 16 102610 41
2010-09-13 07:02:56 51°10.873 2°44.649 5.5 19 16 102610 41
2010-09-13 07:03:02 51°10.872 2°44.65 5.4 306 16 102610 41
2010-09-13 07:03:07 51°10.872 2°44.65 5.9 26 16 102620 41
2010-09-13 07:03:12 51°10.872 2°44.65 5.7 306 16 102620 41
2010-09-13 07:03:16 51°10.871 2°44.65 6.9 28 16 102610 41
2010-09-13 07:03:22 51°10.87 2°44.65 6.7 306 16 102610 41
2010-09-13 07:03:27 51°10.869 2°44.65 6 26 16 102620 40
2010-09-13 07:03:32 51°10.868 2°44.651 5.9 308 16 102620 40
2010-09-13 07:03:37 51°10.868 2°44.651 6 28 16 102620 42
2010-09-13 07:03:42 51°10.867 2°44.651 5.7 302 16 102620 42
2010-09-13 07:03:47 51°10.866 2°44.651 5.8 19 16.1 102620 41
2010-09-13 07:03:52 51°10.866 2°44.652 5.6 301 16.1 102620 41
2010-09-13 07:03:57 51°10.865 2°44.652 5 242 16.1 102620 41
2010-09-13 07:04:02 51°10.864 2°44.652 5.4 308 16.1 102620 41
2010-09-13 07:04:07 51°10.863 2°44.652 5.6 28 16.1 102620 41
2010-09-13 07:04:12 51°10.863 2°44.652 5.5 309 16.1 102620 41
2010-09-13 07:04:17 51°10.862 2°44.653 5.3 23 16.1 102620 41
2010-09-13 07:04:22 51°10.862 2°44.653 5.5 284 16.1 102620 41
2010-09-13 07:04:27 51°10.861 2°44.653 5.5 24 16.1 102620 41
2010-09-13 07:04:32 51°10.86 2°44.654 5.4 308 16.1 102620 41
2010-09-13 07:04:37 51°10.86 2°44.654 4.8 28 16.1 102620 42
2010-09-13 07:04:42 51°10.859 2°44.654 5.5 301 16.1 102620 42
2010-09-13 07:04:47 51°10.858 2°44.654 6.1 23 16.1 102620 41
2010-09-13 07:04:52 51°10.858 2°44.654 5.8 308 16.1 102620 41
2010-09-13 07:04:57 51°10.857 2°44.654 5.5 25 16.1 102620 41
2010-09-13 07:05:02 51°10.856 2°44.654 6 302 16.1 102620 41
2010-09-13 07:05:07 51°10.856 2°44.655 5.8 21 16.1 102620 41
2010-09-13 07:05:12 51°10.855 2°44.655 6.1 302 16.1 102620 41
2010-09-13 07:05:16 51°10.854 2°44.654 5.7 245 16.2 102620 41
2010-09-13 07:05:22 51°10.854 2°44.655 6.3 306 16.2 102620 41
2010-09-13 07:05:27 51°10.853 2°44.655 5.8 23 16.2 102620 41
2010-09-13 07:05:32 51°10.852 2°44.655 5.5 306 16.2 102620 41
2010-09-13 07:05:36 51°10.851 2°44.655 5.9 247 16.2 102620 41
2010-09-13 07:05:42 51°10.851 2°44.655 5.2 309 16.2 102620 41
2010-09-13 07:05:47 51°10.85 2°44.655 6.1 252 16.2 102620 41
2010-09-13 07:05:52 51°10.849 2°44.655 6 308 16.2 102620 41
2010-09-13 07:05:57 51°10.848 2°44.655 6 258 16.2 102620 42
2010-09-13 07:06:02 51°10.848 2°44.655 6.6 300 16.2 102620 42
2010-09-13 07:06:07 51°10.847 2°44.655 5.9 259 16.2 102630 41
2010-09-13 07:06:12 51°10.846 2°44.655 6 307 16.2 102630 41
2010-09-13 07:06:17 51°10.846 2°44.655 5.4 260 16.2 102630 42
2010-09-13 07:06:22 51°10.845 2°44.655 6.1 285 16.2 102630 42
2010-09-13 07:06:27 51°10.844 2°44.655 6.2 257 16.2 102630 43
2010-09-13 07:06:32 51°10.843 2°44.655 4.8 303 16.2 102630 43
2010-09-13 07:06:37 51°10.843 2°44.654 6.3 260 16.2 102630 43
2010-09-13 07:06:42 51°10.842 2°44.654 4 306 16.2 102630 43
2010-09-13 07:06:47 51°10.841 2°44.654 4.9 261 16.3 102640 42
2010-09-13 07:06:52 51°10.841 2°44.654 5.7 303 16.3 102640 42
2010-09-13 07:06:56 51°10.84 2°44.654 6.5 260 16.3 102640 41
2010-09-13 07:07:02 51°10.839 2°44.654 6.2 309 16.3 102640 41
2010-09-13 07:07:07 51°10.839 2°44.654 4.7 262 16.2 102640 41
2010-09-13 07:07:12 51°10.838 2°44.653 4.1 308 16.2 102640 41
2010-09-13 07:07:16 51°10.838 2°44.653 3.7 262 16.2 102640 41
2010-09-13 07:07:22 51°10.837 2°44.653 4 309 16.2 102640 41
2010-09-13 07:07:27 51°10.836 2°44.653 4.1 262 16.3 102640 42
2010-09-13 07:07:32 51°10.835 2°44.653 4 308 16.3 102640 42
2010-09-13 07:07:36 51°10.835 2°44.652 5.7 263 16.3 102640 42
2010-09-13 07:07:42 51°10.834 2°44.652 4.6 306 16.3 102640 42
2010-09-13 07:07:47 51°10.833 2°44.652 5 262 16.2 102640 41
2010-09-13 07:07:52 51°10.833 2°44.652 4.2 307 16.2 102640 41
2010-09-13 07:07:57 51°10.832 2°44.652 4.7 264 16.3 102640 42
2010-09-13 07:08:02 51°10.831 2°44.652 4.8 309 16.3 102640 42
2010-09-13 07:08:07 51°10.83 2°44.651 4.5 268 16.2 102650 41
2010-09-13 07:08:12 51°10.83 2°44.651 4.2 305 16.2 102650 41
2010-09-13 07:08:17 51°10.829 2°44.651 4.2 266 16.2 102640 42
2010-09-13 07:08:22 51°10.829 2°44.651 4.1 280 16.2 102640 42
2010-09-13 07:08:27 51°10.828 2°44.651 4.6 268 16.2 102640 41
2010-09-13 07:08:32 51°10.827 2°44.65 4 308 16.2 102640 41
2010-09-13 07:08:37 51°10.827 2°44.65 4 266 16.2 102650 41
2010-09-13 07:08:42 51°10.826 2°44.65 4.3 301 16.2 102650 41
2010-09-13 07:08:47 51°10.825 2°44.65 3.8 267 16.2 102640 42
2010-09-13 07:08:52 51°10.825 2°44.649 5 308 16.2 102640 42
2010-09-13 07:08:57 51°10.824 2°44.649 5.3 269 16.2 102640 42
2010-09-13 07:09:02 51°10.823 2°44.649 5.1 301 16.2 102640 42
2010-09-13 07:09:07 51°10.823 2°44.649 4.5 269 16.2 102640 41
2010-09-13 07:09:12 51°10.822 2°44.648 4.5 308 16.2 102640 41
2010-09-13 07:09:16 51°10.821 2°44.648 5 268 16.2 102640 41
2010-09-13 07:09:22 51°10.821 2°44.648 5.3 309 16.2 102640 41
2010-09-13 07:09:27 51°10.82 2°44.648 4.9 269 16.1 102640 41
2010-09-13 07:09:32 51°10.82 2°44.648 4.2 310 16.1 102640 41
2010-09-13 07:09:36 51°10.819 2°44.647 4.2 269 16.1 102640 39
2010-09-13 07:09:42 51°10.818 2°44.647 5 17 16.1 102640 39
2010-09-13 07:09:47 51°10.818 2°44.647 4.5 26 16.2 102640 41
2010-09-13 07:09:52 51°10.817 2°44.647 4.6 58 16.2 102640 41
2010-09-13 07:09:57 51°10.817 2°44.647 4.4 29 16.2 102640 41
2010-09-13 07:10:02 51°10.817 2°44.647 5.2 16 16.2 102640 41
2010-09-13 07:10:07 51°10.817 2°44.649 5.2 24 16.2 102640 42
2010-09-13 07:10:12 51°10.818 2°44.65 3.9 307 16.2 102640 42
2010-09-13 07:10:17 51°10.82 2°44.653 3.1 266 16.2 102630 43
2010-09-13 07:10:22 51°10.823 2°44.657 3.2 288 16.2 102630 43
2010-09-13 07:10:27 51°10.826 2°44.661 3.4 265 16.2 102640 43
2010-09-13 07:10:32 51°10.828 2°44.666 2.3 306 16.2 102640 43
2010-09-13 07:10:37 51°10.832 2°44.671 3.1 266 16.2 102640 42
2010-09-13 07:10:42 51°10.836 2°44.677 2.4 303 16.2 102640 42
2010-09-13 07:10:47 51°10.84 2°44.683 2.1 264 16.2 102640 42
2010-09-13 07:10:52 51°10.844 2°44.691 2.5 307 16.2 102640 42
2010-09-13 07:10:57 51°10.848 2°44.699 2 266 16.2 102630 43
2010-09-13 07:11:02 51°10.853 2°44.707 1.4 306 16.2 102630 43
2010-09-13 07:11:07 51°10.858 2°44.715 1.8 264 16.2 102640 42
2010-09-13 07:11:12 51°10.863 2°44.724 2.2 302 16.2 102640 42
2010-09-13 07:11:17 51°10.868 2°44.733 2.8 262 16.1 102640 41
2010-09-13 07:11:22 51°10.874 2°44.742 3.3 303 16.1 102640 41
2010-09-13 07:11:27 51°10.88 2°44.75 3.9 253 16.2 102640 41
2010-09-13 07:11:32 51°10.887 2°44.759 4.2 304 16.2 102640 41
2010-09-13 07:11:36 51°10.892 2°44.765 4 253 16.2 102640 42
2010-09-13 07:11:42 51°10.9 2°44.775 4.5 306 16.2 102640 42
2010-09-13 07:11:47 51°10.908 2°44.783 5.2 252 16.2 102640 41
2010-09-13 07:11:52 51°10.915 2°44.79 5 309 16.2 102640 41
2010-09-13 07:11:56 51°10.921 2°44.796 5.8 23 16.2 102630 43
2010-09-13 07:12:02 51°10.93 2°44.805 5.3 303 16.2 102630 43
2010-09-13 07:12:07 51°10.938 2°44.812 6 250 16.2 102630 42
2010-09-13 07:12:12 51°10.946 2°44.818 5.2 305 16.2 102630 42
2010-09-13 07:12:17 51°10.955 2°44.825 5.6 249 16.2 102630 42
2010-09-13 07:12:22 51°10.963 2°44.832 5.2 284 16.2 102630 42
2010-09-13 07:12:27 51°10.971 2°44.839 5.9 21 16.3 102630 43
2010-09-13 07:12:32 51°10.979 2°44.846 6 306 16.3 102630 43
2010-09-13 07:12:37 51°10.987 2°44.853 4.7 250 16.3 102630 43
2010-09-13 07:12:42 51°10.995 2°44.861 5 307 16.3 102630 43
2010-09-13 07:12:47 51°11.003 2°44.869 4.5 251 16.3 102630 42
2010-09-13 07:12:52 51°11.012 2°44.877 4.7 307 16.3 102630 42
2010-09-13 07:12:57 51°11.019 2°44.885 5.2 249 16.3 102630 43
2010-09-13 07:13:02 51°11.027 2°44.894 4.4 307 16.3 102630 43
2010-09-13 07:13:07 51°11.035 2°44.905 5 256 16.3 102630 43
2010-09-13 07:13:12 51°11.041 2°44.915 4 308 16.3 102630 43
2010-09-13 07:13:17 51°11.048 2°44.926 4.2 255 16.3 102630 43
2010-09-13 07:13:22 51°11.054 2°44.937 4.9 308 16.3 102630 43
2010-09-13 07:13:27 51°11.06 2°44.948 4.8 259 16.3 102630 43
2010-09-13 07:13:32 51°11.067 2°44.959 5 300 16.3 102630 43
2010-09-13 07:13:36 51°11.072 2°44.968 4.6 257 16.3 102630 42
2010-09-13 07:13:42 51°11.08 2°44.981 4.2 303 16.3 102630 42
2010-09-13 07:13:47 51°11.086 2°44.992 4.2 255 16.3 102630 43
2010-09-13 07:13:52 51°11.093 2°45.003 4 309 16.3 102630 43
2010-09-13 07:13:56 51°11.099 2°45.012 2.6 255 16.4 102630 42
2010-09-13 07:14:02 51°11.107 2°45.025 4.2 303 16.4 102630 42
2010-09-13 07:14:07 51°11.113 2°45.036 3.9 258 16.4 102630 42
2010-09-13 07:14:12 51°11.119 2°45.047 4.1 308 16.4 102630 42
2010-09-13 07:14:16 51°11.124 2°45.057 2.3 263 16.4 102630 43
2010-09-13 07:14:22 51°11.131 2°45.072 2 283 16.4 102630 43
2010-09-13 07:14:27 51°11.136 2°45.085 1.9 263 16.4 102630 43
2010-09-13 07:14:32 51°11.14 2°45.098 2.5 308 16.4 102630 43
2010-09-13 07:14:37 51°11.144 2°45.112 1.8 263 16.4 102630 42
2010-09-13 07:14:42 51°11.147 2°45.127 1.5 54 16.4 102630 42
2010-09-13 07:14:47 51°11.149 2°45.141 0.4 28 16.4 102630 41
2010-09-13 07:14:52 51°11.149 2°45.155 0.2 45 16.4 102630 41
2010-09-13 07:14:57 51°11.149 2°45.169 0.1 37 16.4 102630 40
2010-09-13 07:15:02 51°11.147 2°45.182 0.9 13 16.4 102630 40
2010-09-13 07:15:07 51°11.145 2°45.194 0.3 24 16.5 102640 42
2010-09-13 07:15:12 51°11.142 2°45.205 1.6 41 16.5 102640 42
2010-09-13 07:15:17 51°11.137 2°45.215 2.1 34 16.5 102640 42
2010-09-13 07:15:22 51°11.132 2°45.224 3.3 31 16.5 102640 42
2010-09-13 07:15:27 51°11.127 2°45.231 3.7 29 16.5 102630 43
2010-09-13 07:15:32 51°11.121 2°45.237 3.8 28 16.5 102630 43
2010-09-13 07:15:37 51°11.115 2°45.242 4 23 16.5 102630 42
2010-09-13 07:15:42 51°11.108 2°45.245 4.6 22 16.5 102630 42
2010-09-13 07:15:47 51°11.102 2°45.248 4.9 21 16.5 102630 42
2010-09-13 07:15:52 51°11.096 2°45.249 5.4 20 16.5 102630 42
2010-09-13 07:15:56 51°11.091 2°45.25 5 18 16.5 102630 42
2010-09-13 07:16:02 51°11.084 2°45.249 5.2 14 16.5 102630 42
2010-09-13 07:16:07 51°11.078 2°45.248 5 11 16.5 102630 42
2010-09-13 07:16:12 51°11.072 2°45.246 5.2 7 16.5 102630 42
2010-09-13 07:16:16 51°11.068 2°45.245 4.4 5 16.5 102620 42
2010-09-13 07:16:22 51°11.062 2°45.242 5.3 6 16.5 102620 42
2010-09-13 07:16:27 51°11.057 2°45.239 5.7 6 16.5 102630 43
2010-09-13 07:16:32 51°11.052 2°45.237 5 6 16.5 102630 43
2010-09-13 07:16:36 51°11.047 2°45.234 5.1 3 16.5 102630 43
2010-09-13 07:16:42 51°11.04 2°45.229 6.4 359 16.5 102630 43
2010-09-13 07:16:47 51°11.033 2°45.224 6 356 16.4 102630 42
2010-09-13 07:16:52 51°11.027 2°45.218 6.4 357 16.4 102630 42
2010-09-13 07:16:57 51°11.02 2°45.211 6.3 354 16.3 102630 41
2010-09-13 07:17:02 51°11.014 2°45.204 6.5 352 16.3 102630 41
2010-09-13 07:17:07 51°11.008 2°45.196 6.7 353 16.4 102630 42
2010-09-13 07:17:12 51°11.003 2°45.188 7 354 16.4 102630 42
2010-09-13 07:17:17 51°10.997 2°45.18 6.9 354 16.3 102630 43
2010-09-13 07:17:22 51°10.992 2°45.172 6.9 353 16.3 102630 43
2010-09-13 07:17:27 51°10.987 2°45.165 6.6 354 16.3 102620 41
2010-09-13 07:17:32 51°10.982 2°45.157 6.5 352 16.3 102620 41
2010-09-13 07:17:37 51°10.978 2°45.149 6.2 354 16.3 102620 40
2010-09-13 07:17:42 51°10.974 2°45.141 6.7 353 16.3 102620 40
2010-09-13 07:17:47 51°10.969 2°45.134 7 353 16.2 102620 42
2010-09-13 07:17:52 51°10.965 2°45.126 6.8 352 16.2 102620 42
2010-09-13 07:17:56 51°10.962 2°45.121 6.7 352 16.2 102620 43
2010-09-13 07:18:02 51°10.957 2°45.112 6.2 354 16.2 102620 43
2010-09-13 07:18:07 51°10.954 2°45.105 6.3 352 16.2 102620 43
2010-09-13 07:18:12 51°10.95 2°45.098 6.4 354 16.2 102620 43
2010-09-13 07:18:16 51°10.947 2°45.093 6.6 357 16.2 102620 42
2010-09-13 07:18:22 51°10.943 2°45.085 6.6 355 16.2 102620 42
2010-09-13 07:18:27 51°10.94 2°45.078 6.3 355 16.1 102620 42
2010-09-13 07:18:32 51°10.937 2°45.072 6.2 354 16.1 102620 42
2010-09-13 07:18:36 51°10.934 2°45.067 6.2 354 16.1 102630 43
2010-09-13 07:18:42 51°10.931 2°45.06 5.7 355 16.1 102630 43
2010-09-13 07:18:47 51°10.928 2°45.053 6.3 356 16.1 102630 43
2010-09-13 07:18:52 51°10.925 2°45.047 5.3 353 16.1 102630 43
2010-09-13 07:18:57 51°10.922 2°45.041 6.2 352 16.1 102630 42
2010-09-13 07:19:02 51°10.92 2°45.036 6.3 351 16.1 102630 42
2010-09-13 07:19:07 51°10.917 2°45.03 6 351 16 102630 43
2010-09-13 07:19:12 51°10.914 2°45.025 6 352 16 102630 43
2010-09-13 07:19:16 51°10.912 2°45.02 5.7 352 16 102630 43
2010-09-13 07:19:22 51°10.909 2°45.013 5.8 352 16 102630 43
2010-09-13 07:19:27 51°10.907 2°45.007 5.6 353 16 102630 43
2010-09-13 07:19:32 51°10.905 2°45.001 5.8 352 16 102630 43
2010-09-13 07:19:37 51°10.902 2°44.996 6.2 351 16 102630 42
2010-09-13 07:19:42 51°10.9 2°44.99 5.5 351 16 102630 42
2010-09-13 07:19:47 51°10.898 2°44.984 5.2 349 15.9 102630 42
2010-09-13 07:19:52 51°10.896 2°44.979 5.5 349 15.9 102630 42
2010-09-13 07:19:57 51°10.893 2°44.973 5.9 351 15.9 102630 43
2010-09-13 07:20:02 51°10.891 2°44.967 6.2 352 15.9 102630 43